Wind_Speed
34 35 36 37 38 38 36 35 34 34 34 33 32 32 31 30 27 26 27 27 26 26 26 25 24 23 22 22 22 22 21 19 19 19 19 19 20 21 23 24 25 27 29 31 32 30 27 24 22 21 21 22 23 24 24 24 24 25 25 26 26 27 27 28 28 28 28 28 28
35 35 36 36 37 36 34 32 31 30 30 30 29 29 30 28 27 25 25 25 25 25 25 24 23 22 21 21 21 21 20 18 18 18 19 21 23 25 27 28 30 31 33 33 31 27 23 20 20 20 21 22 24 25 25 25 25 25 26 27 27 27 28 28 28 28 28 28 28
37 37 36 36 36 34 32 30 29 29 28 28 28 28 28 27 26 25 24 24 24 24 23 22 20 20 20 19 20 20 19 18 18 18 21 24 28 30 32 33 34 34 32 29 25 21 19 19 20 21 22 23 24 25 25 25 25 26 26 27 27 27 27 28 28 28 28 28 28
37 38 37 36 35 31 28 27 28 28 29 28 28 27 27 25 24 24 24 23 22 21 20 19 18 19 20 20 20 19 18 18 20 23 27 31 34 35 35 34 32 30 26 22 19 18 19 19 20 22 23 24 24 25 25 26 26 26 26 27 27 27 27 27 27 27 27 27 27
37 38 38 36 33 31 29 28 28 28 28 28 28 27 26 25 24 23 22 20 19 18 18 18 19 20 21 20 18 17 19 22 26 30 34 35 35 33 31 28 24 21 19 18 18 19 20 21 22 23 24 24 25 25 26 26 26 27 27 27 27 27 27 27 27 27 27 27 27
37 38 37 35 33 31 30 29 28 27 27 27 27 27 25 24 22 20 18 17 17 18 19 20 21 20 19 17 17 20 24 29 32 33 32 30 28 25 21 19 17 16 17 18 19 20 21 22 23 24 25 25 26 27 27 27 27 27 28 28 28 28 27 27 27 27 27 27 27
37 36 35 34 32 31 30 29 27 27 27 27 26 24 23 22 19 18 17 18 19 20 21 21 20 18 17 18 22 26 30 32 31 29 26 23 20 17 15 14 15 16 17 18 19 20 22 23 24 25 26 26 27 27 28 28 28 28 28 29 29 28 28 27 27 27 27 27 28
35 34 33 33 31 30 29 27 26 26 26 24 22 20 19 18 18 18 19 21 21 21 20 19 18 18 20 24 28 30 30 28 25 22 19 17 15 14 14 14 15 16 17 18 20 21 22 23 24 25 26 27 28 28 29 29 29 29 29 30 29 29 29 28 28 28 28 28 29
35 34 33 31 29 28 26 24 23 23 22 19 18 17 17 18 19 20 21 22 21 20 18 18 19 22 25 28 29 28 25 22 19 17 15 14 13 13 14 15 17 18 19 19 20 21 23 23 24 26 27 28 28 29 30 30 30 30 30 31 31 31 30 30 30 30 30 30 30
33 31 29 27 25 24 23 21 19 17 16 16 17 18 19 20 21 21 21 20 20 19 19 20 23 26 28 27 25 22 19 16 15 13 13 13 14 15 16 17 19 20 20 21 21 22 23 24 26 27 28 29 30 30 31 31 31 31 32 32 32 32 32 32 32 31 31 32 32
28 26 25 23 21 19 18 16 14 14 15 16 17 18 19 20 20 19 19 18 18 18 20 23 25 26 25 22 19 16 14 12 11 11 12 14 15 16 18 19 20 21 22 23 23 24 25 27 28 29 30 30 31 31 31 31 32 32 32 33 33 33 33 33 33 32 32 32 33
25 23 20 18 15 14 13 12 13 13 14 15 16 17 17 16 15 15 16 16 18 20 23 24 24 22 19 17 14 12 10 10 11 12 13 15 16 18 19 20 22 23 24 25 26 27 28 28 29 30 30 31 31 31 31 31 32 32 32 33 33 33 33 33 33 33 32 32 33
22 19 15 12 11 11 11 12 13 14 14 14 13 12 11 11 12 13 16 18 20 22 22 21 19 16 14 12 10 9 9 10 12 13 15 16 18 19 21 22 23 25 26 27 27 28 28 29 29 30 30 30 31 31 31 31 32 32 32 33 33 33 33 33 33 33 33 33 33
18 15 13 11 11 11 12 12 13 13 12 11 9 8 9 10 11 14 17 19 19 19 17 15 13 11 10 9 9 9 11 12 14 15 17 18 19 21 22 24 25 26 26 27 27 28 28 28 29 30 30 31 31 32 32 32 32 32 32 33 33 33 33 33 33 33 33 33 33
15 13 12 11 12 12 12 12 12 11 10 8 8 8 9 11 13 15 16 16 15 14 12 11 10 9 8 9 10 11 13 14 15 17 19 20 21 23 24 25 26 26 27 27 28 28 28 29 30 30 31 32 32 32 33 33 33 33 33 33 33 33 33 34 33 33 33 33 33
13 12 12 12 12 12 12 11 11 9 8 7 8 8 9 11 12 12 13 12 12 11 10 10 9 9 9 10 11 13 14 16 17 19 20 22 23 24 25 26 26 27 27 28 28 29 30 30 31 31 32 33 33 33 33 33 33 33 33 34 34 34 34 34 34 34 34 34 34
12 12 11 11 11 11 10 10 9 8 7 7 7 7 7 8 8 9 10 11 10 10 9 9 9 9 10 12 13 14 16 18 19 21 22 23 24 25 26 26 27 27 28 29 29 30 31 32 32 33 33 33 34 34 34 34 34 34 34 34 34 34 34 34 34 35 35 35 35
11 10 10 10 9 9 8 7 7 7 6 6 6 6 5 5 6 7 8 9 9 8 8 9 9 11 12 13 15 16 18 19 21 22 23 24 25 26 26 27 28 28 29 30 31 32 33 33 33 34 34 34 34 34 34 33 33 33 33 33 33 33 34 34 34 34 35 35 36
9 8 8 8 7 6 6 6 6 6 5 5 5 5 4 3 4 5 7 8 8 8 9 10 11 12 14 15 17 18 19 21 22 23 24 25 25 26 27 28 29 30 30 31 32 33 34 34 34 34 34 33 33 33 33 33 33 33 32 32 32 33 33 33 33 33 34 34 35
7 7 6 6 5 5 4 4 4 4 4 4 3 3 3 3 4 5 7 8 9 10 11 12 13 15 16 18 19 20 21 22 23 24 24 25 26 27 28 29 30 31 32 33 33 34 34 34 33 33 33 33 33 33 33 32 32 32 32 32 32 33 33 33 33 33 33 34 34
6 5 5 4 3 2 2 2 2 2 3 3 3 3 4 5 7 8 9 11 12 12 13 14 15 17 18 19 20 21 22 23 24 25 26 27 28 29 30 31 31 32 33 33 33 33 33 33 33 32 32 32 32 32 33 32 33 33 33 33 33 33 33 33 33 33 33 33 33
5 5 4 3 2 2 2 2 2 2 3 3 5 6 8 10 11 12 13 14 13 13 13 15 16 18 19 20 21 22 23 24 25 26 27 28 29 30 31 31 32 32 33 32 32 32 32 32 32 32 32 32 32 32 32 32 33 33 33 33 34 34 34 34 34 34 34 34 34
6 5 5 4 4 3 3 2 3 3 5 7 9 12 14 15 15 15 15 14 13 13 14 15 17 19 20 21 22 23 24 25 26 27 28 29 30 30 31 31 31 32 32 32 32 32 32 32 32 32 32 32 32 32 32 33 33 33 33 34 34 34 35 35 35 35 35 35 36
6 6 5 5 4 4 3 3 4 6 10 13 16 17 18 17 17 16 14 13 13 14 15 16 18 20 21 22 23 24 25 26 27 27 28 29 29 30 30 31 31 31 31 31 31 31 32 32 32 32 32 32 32 32 32 33 33 33 33 34 34 35 35 35 35 35 35 36 36
7 6 6 5 5 5 5 6 9 12 15 18 19 19 18 17 16 15 14 14 14 15 16 18 20 21 22 22 23 23 24 25 26 27 28 29 29 30 30 31 31 31 31 31 31 31 31 31 31 31 31 31 31 32 32 33 33 33 34 34 34 35 35 36 36 36 36 36 36
8 7 7 7 8 10 12 14 16 18 19 20 19 18 17 16 15 14 14 15 15 16 18 20 21 22 22 22 23 23 24 25 26 27 28 29 30 30 30 31 31 31 31 31 31 31 30 30 30 30 30 31 32 32 33 34 34 34 35 35 35 36 36 37 37 37 37 37 36
10 9 10 13 16 18 20 20 20 19 18 17 16 16 15 15 15 15 15 15 16 17 20 21 22 22 22 22 23 24 25 26 27 28 29 30 30 30 31 31 31 31 31 31 31 30 31 31 31 31 32 32 33 34 35 36 36 36 36 37 37 37 38 38 38 38 38 38 37
14 15 18 21 22 22 21 19 17 15 14 14 14 14 14 15 15 15 15 16 17 19 21 22 23 22 23 23 24 25 26 27 28 29 29 30 30 30 31 31 31 31 31 31 31 31 32 32 32 33 33 34 34 35 35 36 37 37 38 38 38 38 38 38 39 39 39 39 39
20 22 23 23 21 19 16 14 13 12 12 13 13 14 14 15 15 15 15 16 19 21 22 23 23 23 23 24 25 26 27 28 29 29 29 30 30 31 31 31 31 31 32 32 32 32 33 33 33 34 33 33 34 34 35 36 36 37 37 38 38 38 38 38 38 39 40 41 42
23 23 22 20 17 14 12 11 11 11 12 12 13 14 14 15 15 15 16 18 20 22 22 23 23 23 24 25 26 27 28 28 29 29 30 30 31 31 31 32 32 32 32 32 33 33 33 33 33 33 33 33 34 34 35 35 36 37 38 38 39 39 40 42 43 43 44 45 44
22 20 17 15 12 11 10 10 11 11 12 12 13 14 14 14 15 17 19 20 21 22 22 23 23 24 24 25 26 27 28 29 30 30 30 31 31 31 32 32 32 32 32 33 33 33 33 33 33 33 33 33 33 34 35 36 37 38 39 40 41 42 42 42 42 41 40 39 37
18 15 12 11 10 10 10 10 10 11 12 13 13 14 14 15 17 19 20 21 21 22 22 23 23 24 25 26 27 29 29 30 30 30 31 31 31 31 32 32 32 32 33 33 33 33 33 33 33 33 33 33 34 35 36 37 38 39 40 40 40 39 38 36 34 32 31 29 28
13 11 9 9 9 9 10 10 11 11 12 13 13 14 16 18 20 20 21 21 21 21 22 22 23 25 26 28 29 30 30 30 30 30 30 30 30 31 31 32 32 32 33 33 33 33 33 33 33 34 34 35 36 37 38 38 38 37 36 34 32 30 28 26 25 25 25 25 26
11 9 9 9 9 9 10 10 11 12 12 13 14 16 17 19 20 20 20 20 21 21 22 23 25 27 28 29 29 30 30 30 30 30 30 30 30 31 32 32 32 32 32 32 33 33 33 34 35 36 37 37 38 37 36 34 32 29 27 25 23 22 22 23 24 25 27 28 29
10 9 9 9 9 10 10 10 10 11 12 14 15 17 18 19 19 20 20 20 21 22 24 26 27 28 29 29 28 29 29 29 29 29 30 30 31 31 32 32 32 32 32 32 33 33 35 36 37 38 38 37 35 32 28 25 23 22 21 21 21 22 24 25 27 29 30 31 31
10 10 10 10 9 9 9 9 10 11 13 15 17 18 18 19 19 19 20 21 23 25 27 28 28 28 28 28 28 28 28 29 29 30 30 30 31 31 32 32 32 32 33 33 34 35 36 37 38 37 34 30 26 23 21 20 20 21 22 23 25 26 27 29 31 32 32 32 32
8 8 8 7 7 7 8 9 11 14 15 17 17 18 18 19 19 20 22 24 26 27 28 28 27 27 27 27 27 28 28 29 29 30 30 30 31 31 31 32 32 33 33 34 35 36 37 37 35 31 26 22 20 19 19 21 23 24 26 27 28 29 31 32 33 33 33 32 31
4 4 4 5 6 8 10 12 14 16 17 17 18 18 19 20 21 23 24 26 27 27 27 26 26 26 27 27 28 28 29 29 29 29 30 30 30 30 31 32 33 33 34 35 36 37 36 34 29 24 20 18 19 20 22 24 25 27 28 29 30 31 32 33 33 32 32 31 30
2 3 5 7 10 12 14 15 16 17 17 18 18 19 20 22 23 25 26 26 26 25 25 26 26 27 27 28 28 29 29 29 29 29 29 29 29 30 30 31 32 34 35 36 36 36 33 28 23 19 18 18 20 22 24 26 28 29 29 30 30 31 32 31 30 30 29 29 28
6 8 11 13 14 15 16 17 17 17 18 19 20 21 22 24 25 25 25 25 25 25 25 26 26 27 27 28 28 28 29 29 28 28 28 28 29 29 30 31 32 34 35 36 36 32 28 23 20 18 19 20 21 22 25 27 28 29 29 29 29 30 30 29 27 26 25 25 25
11 13 15 16 16 17 17 17 18 18 19 20 21 23 24 24 25 25 24 24 24 25 25 26 26 27 27 27 27 28 28 28 28 27 27 27 28 28 29 30 32 34 36 36 33 28 24 21 20 19 19 20 21 23 25 27 28 28 28 29 29 29 29 28 27 27 27 27 28
Wind_Direction
292 290 289 288 290 292 291 285 274 263 254 246 240 238 238 237 234 231 228 223 215 208 203 201 201 201 203 205 207 209 211 213 217 221 226 233 241 248 255 261 266 272 279 285 290 293 296 297 296 296 295 295 292 290 288 288 288 288 287 286 285 285 284 283 283 282 282 281 280
291 291 290 289 289 290 289 283 273 262 252 245 239 238 238 236 231 226 220 214 207 202 199 198 198 200 203 207 211 213 216 219 224 230 237 245 253 260 265 270 275 281 285 290 293 296 297 297 296 295 295 292 289 287 287 288 288 287 285 285 285 284 284 283 283 283 283 282 281
291 291 290 290 290 289 287 280 272 262 252 245 241 238 235 232 227 221 214 208 203 200 198 198 201 205 209 214 218 221 225 231 239 249 257 264 269 273 276 280 283 287 290 294 297 298 297 295 295 295 293 290 288 288 288 289 289 287 286 285 286 286 285 284 284 284 284 282 281
291 291 290 290 290 288 284 278 272 264 255 246 240 235 231 227 221 216 211 207 204 203 204 206 211 216 221 225 229 234 241 251 262 271 276 279 281 282 283 286 289 292 296 300 299 297 296 297 296 294 292 291 291 291 291 292 291 290 288 288 288 287 287 286 286 286 285 283 281
290 289 289 288 288 286 282 277 272 264 254 246 239 233 227 223 218 214 212 210 210 212 215 219 223 227 230 234 241 253 265 274 281 285 286 286 286 286 288 292 296 299 301 300 297 297 298 299 297 295 294 295 294 294 294 294 293 291 290 290 289 289 288 288 287 287 285 283 282
289 288 287 286 285 283 280 277 271 261 253 247 240 233 226 222 217 214 213 214 218 223 226 228 230 232 237 246 261 275 284 288 291 291 290 290 290 293 297 302 303 302 298 297 298 299 300 298 297 297 297 297 296 296 295 295 293 292 291 290 290 289 289 288 287 286 285 283 281
288 286 284 283 281 280 277 273 267 259 251 245 237 231 226 221 215 213 216 220 223 227 229 231 232 238 250 266 280 288 292 294 294 294 294 295 299 304 306 305 301 299 298 299 300 300 298 297 297 297 297 296 295 295 294 294 293 291 290 290 290 289 288 287 286 285 284 282 281
287 284 282 280 278 276 274 269 263 255 247 240 232 225 221 218 215 215 219 224 225 226 228 231 239 252 268 281 289 293 296 297 297 298 301 306 310 310 305 300 298 296 296 298 298 297 296 295 294 294 293 293 292 292 292 292 291 290 289 288 288 288 287 286 285 284 283 281 280
285 282 280 278 275 273 270 263 257 250 242 231 223 218 218 220 221 222 223 224 224 226 231 241 255 270 281 289 294 297 299 301 304 308 312 314 312 306 300 296 294 294 294 294 293 293 292 291 290 289 288 288 288 288 288 289 288 287 287 286 286 286 285 284 283 283 282 281 280
283 280 278 276 272 269 264 257 247 238 229 222 218 219 222 224 226 226 225 225 227 233 244 258 272 283 290 296 300 303 306 310 314 316 314 309 302 298 295 294 293 293 292 291 289 288 287 286 285 285 285 285 285 285 286 286 285 285 285 284 284 284 284 283 283 282 281 281 280
282 279 277 275 270 265 258 248 234 222 218 220 220 222 224 226 226 226 227 231 238 249 263 275 285 292 299 304 309 313 316 318 314 308 303 298 295 294 293 293 293 292 290 287 285 284 284 283 283 283 284 284 285 285 285 285 285 285 285 285 285 285 284 284 283 283 282 281 281
281 278 275 272 265 257 247 233 222 218 218 219 221 223 225 227 229 234 240 248 260 272 282 290 297 303 309 315 320 320 314 304 298 295 294 293 293 292 291 291 290 288 286 284 283 284 284 284 285 285 286 286 286 286 286 287 287 286 286 286 286 286 285 285 284 284 283 283 282
278 274 269 260 250 242 234 226 222 220 219 219 222 227 233 242 251 260 267 275 283 290 297 304 310 315 320 322 317 308 297 292 289 288 288 288 288 288 288 288 287 286 285 286 286 287 287 288 288 288 288 289 289 288 288 288 288 287 287 287 287 286 286 285 285 285 284 284 283
272 267 259 247 240 235 231 227 225 223 222 224 231 245 259 270 277 283 289 294 300 305 311 315 319 320 317 309 298 290 287 287 286 286 285 286 287 287 288 289 289 289 289 290 291 291 290 290 290 290 290 290 290 290 289 289 288 287 287 287 286 286 285 285 285 284 284 284 283
262 257 250 243 239 235 232 229 228 227 229 237 252 267 276 282 287 293 299 305 309 313 316 317 315 310 302 293 288 287 286 286 286 286 286 287 289 290 291 291 291 291 291 292 293 293 292 292 292 292 292 291 291 291 290 289 288 287 286 286 285 285 284 284 283 283 283 283 282
255 250 245 241 238 235 232 232 233 237 245 258 270 277 283 290 293 298 303 307 310 312 313 312 309 302 295 290 287 286 286 286 287 287 288 290 292 293 294 293 292 292 292 293 294 294 294 294 293 293 292 292 292 291 290 290 288 287 286 285 284 284 283 283 282 282 282 281 281
249 245 242 239 237 235 235 238 245 256 268 278 284 287 290 294 294 297 301 305 308 311 313 310 306 300 294 291 289 288 287 287 288 289 291 292 293 294 293 292 292 292 293 293 294 294 294 294 294 293 293 292 291 291 290 289 289 288 287 286 285 284 283 282 282 281 281 281 280
243 241 239 238 238 241 247 257 269 280 287 290 295 295 292 289 287 292 299 304 309 311 310 305 299 295 291 289 288 288 288 288 289 291 292 293 293 292 292 291 292 292 293 293 293 293 293 294 294 293 293 292 291 291 291 290 289 289 288 287 286 285 284 283 283 282 282 281 281
239 239 240 243 249 258 271 283 292 295 295 295 297 294 283 271 274 287 295 298 301 302 299 295 291 289 288 287 288 289 290 291 292 293 293 293 292 291 291 291 291 292 292 293 293 293 293 293 293 293 293 293 292 292 292 292 291 290 290 289 288 287 286 285 284 283 283 282 282
238 242 249 258 269 282 293 299 298 294 291 290 285 276 261 248 257 270 279 285 291 292 292 289 287 286 287 288 290 293 294 296 296 295 294 292 291 290 290 291 291 292 293 293 294 294 294 294 294 294 294 294 294 294 293 293 292 291 290 290 289 288 287 286 285 284 284 283 282
238 244 252 264 278 289 291 288 283 279 274 264 252 239 237 245 254 263 274 285 292 293 292 289 288 288 291 294 296 297 298 298 297 295 293 292 291 291 291 292 293 294 294 294 295 295 295 295 295 295 295 295 295 294 294 293 292 292 291 290 289 288 287 286 285 284 283 282 282
235 234 233 233 240 246 253 267 267 261 249 235 232 239 248 257 266 277 287 294 296 294 291 290 292 295 298 299 299 299 298 297 295 294 292 291 291 292 293 294 294 295 295 295 295 296 296 296 296 296 296 296 295 295 294 293 293 292 291 290 289 288 286 285 284 283 282 280 280
226 223 222 227 238 247 261 271 264 248 239 240 248 257 265 272 282 290 295 296 293 289 289 293 298 301 301 301 299 297 296 295 293 292 292 292 292 293 294 295 295 295 296 296 296 297 297 297 297 297 297 296 296 295 295 294 293 292 291 290 288 287 286 285 283 282 280 279 278
220 223 228 238 247 258 268 264 252 249 254 261 268 274 279 285 292 295 294 290 285 284 290 298 303 303 302 300 298 296 294 293 293 292 293 293 294 295 295 296 296 296 296 296 297 297 297 297 297 297 297 297 296 295 294 293 292 291 290 288 287 286 285 284 283 281 280 279 277
221 226 233 244 255 268 273 270 267 270 274 279 283 287 290 293 294 292 286 280 278 284 293 302 305 305 303 300 298 296 294 294 293 294 294 295 296 296 297 296 296 296 296 296 296 297 297 297 297 296 296 295 295 294 292 291 290 289 288 287 286 285 284 283 282 281 280 279 278
223 231 245 265 282 291 292 289 287 288 289 292 293 294 294 293 290 284 278 275 278 288 299 305 306 306 304 301 299 297 295 295 295 295 296 297 297 297 297 297 297 296 296 296 296 296 296 296 295 295 294 293 293 292 291 290 289 288 287 286 286 285 285 284 283 282 281 280 279
238 253 273 289 298 301 301 299 298 298 299 299 297 295 293 289 283 277 273 275 284 296 305 308 308 306 304 301 298 297 296 296 296 297 298 298 298 297 298 297 297 297 296 296 296 296 295 295 294 293 292 291 291 290 290 289 289 288 287 287 286 286 285 285 284 284 283 282 281
263 278 290 298 303 305 305 304 304 303 302 299 295 292 288 283 277 273 274 281 294 304 309 309 308 305 302 299 297 297 297 297 298 298 299 298 298 298 298 298 297 297 297 296 296 295 295 294 293 292 291 291 290 289 289 288 288 287 287 287 287 286 286 286 285 285 284 283 282
281 291 299 304 306 308 308 307 306 303 299 295 291 287 283 278 274 275 282 295 305 309 309 308 305 302 299 297 297 297 298 298 299 299 299 299 299 299 298 298 298 297 297 296 296 295 295 294 294 293 292 292 290 289 288 287 287 287 286 286 286 287 286 286 286 285 284 283 283
294 301 306 308 309 310 309 307 304 299 295 291 287 283 278 274 277 286 299 308 310 310 308 305 302 299 298 297 298 299 299 300 300 300 300 300 299 299 298 298 297 297 297 297 297 297 296 296 296 295 294 292 290 289 287 287 286 286 286 286 286 287 287 286 286 285 284 284 284
302 306 308 309 309 309 307 304 300 295 291 287 281 276 275 280 292 304 311 312 311 309 305 302 300 298 298 298 299 300 301 301 301 301 300 300 299 299 298 298 298 298 298 299 298 299 298 298 297 296 294 292 290 289 287 286 286 286 286 287 287 287 287 287 287 287 287 288 288
304 305 306 306 306 305 303 300 296 292 286 280 276 277 285 297 308 312 313 311 309 306 303 300 299 299 300 300 301 301 302 302 301 301 300 300 299 299 299 299 299 299 300 300 300 300 299 298 297 296 294 293 291 289 288 288 288 288 288 288 289 289 289 290 291 292 293 295 296
303 302 302 302 302 301 298 295 289 283 279 277 282 291 302 309 312 312 310 308 305 302 300 299 300 300 301 302 302 302 302 302 301 301 301 300 300 300 300 300 300 301 301 301 301 300 299 298 297 296 295 294 293 292 291 291 290 290 290 290 291 292 293 295 297 299 300 301 300
302 301 299 298 297 295 291 285 280 279 281 289 297 304 309 310 310 308 306 303 300 299 299 299 301 302 302 303 303 303 303 302 302 302 302 301 301 301 301 301 301 302 302 302 301 300 299 299 298 298 297 297 296 295 294 293 293 293 293 294 296 298 299 300 301 302 302 302 301
300 299 296 293 290 287 283 281 283 288 295 300 304 306 307 307 305 303 300 299 298 298 300 301 303 304 304 304 304 304 303 303 303 303 302 302 302 302 302 302 302 302 302 301 301 300 300 300 300 300 300 299 298 297 297 297 297 298 298 300 301 301 302 303 303 304 303 302 301
297 293 289 286 282 282 285 289 294 297 300 302 304 305 304 303 301 299 298 298 299 301 303 304 306 306 306 306 306 305 304 304 303 303 303 303 303 303 303 303 303 302 302 301 301 301 302 303 303 302 302 301 301 302 303 305 305 305 305 305 305 305 306 307 307 306 305 303 301
293 287 283 282 284 289 295 298 299 300 302 304 305 304 302 300 298 298 299 301 303 305 307 308 309 309 308 307 306 305 304 304 304 304 305 305 305 305 304 304 303 302 301 302 302 303 304 305 305 304 304 305 308 310 312 311 310 309 309 308 308 308 309 310 310 308 305 302 300
305 299 297 300 301 302 303 303 304 306 307 307 304 301 299 298 299 301 303 305 307 309 310 310 310 309 308 307 306 305 305 305 306 306 306 307 307 306 305 304 302 302 302 302 304 305 306 306 306 306 308 313 315 316 315 314 312 311 310 309 309 310 311 311 310 307 303 300 298
347 328 317 312 310 310 309 310 310 309 307 304 301 300 300 301 303 305 308 310 311 312 311 311 310 309 308 307 307 307 307 307 308 309 309 309 307 306 304 303 302 302 302 304 306 307 308 308 309 311 314 317 317 316 315 313 311 310 309 309 309 310 311 311 308 304 300 297 296
321 318 316 315 315 314 313 312 310 307 304 301 301 302 304 305 308 310 312 314 314 313 312 310 309 309 309 309 308 309 309 310 310 311 310 309 307 305 304 302 302 302 303 305 307 309 311 312 314 316 318 318 316 315 313 312 311 310 310 310 311 311 311 309 307 303 300 299 297
323 321 320 318 317 315 312 310 307 304 303 303 304 306 308 310 312 314 316 316 315 313 311 310 310 310 310 310 310 310 311 311 312 311 310 309 307 305 303 302 302 302 304 307 310 313 316 318 319 320 319 317 314 312 312 312 312 312 312 311 310 308 306 305 303 302 300 299 298
Height
1485 1484 1482 1481 1480 1478 1477 1476 1475 1474 1473 1473 1473 1473 1473 1474 1475 1475 1475 1475 1475 1475 1475 1475 1475 1475 1475 1475 1476 1476 1476 1475 1475 1474 1474 1474 1475 1476 1477 1478 1479 1480 1481 1481 1481 1481 1481 1481 1481 1481 1481 1481 1481 1480 1480 1479 1479 1478 1478 1477 1476 1476 1475 1474 1473 1472 1471 1471 1470
1482 1481 1480 1479 1478 1476 1475 1474 1473 1472 1472 1471 1471 1471 1471 1472 1473 1473 1473 1472 1472 1472 1472 1472 1473 1473 1473 1473 1473 1473 1473 1472 1472 1472 1472 1473 1475 1476 1477 1478 1479 1479 1479 1479 1479 1479 1479 1480 1480 1480 1480 1479 1479 1478 1478 1477 1477 1476 1476 1475 1474 1473 1473 1471 1471 1470 1469 1468 1468
1479 1478 1477 1476 1476 1475 1473 1472 1471 1471 1471 1470 1470 1470 1470 1470 1471 1471 1471 1471 1471 1471 1471 1471 1471 1471 1472 1471 1471 1471 1471 1471 1471 1471 1473 1474 1475 1476 1476 1477 1477 1477 1477 1477 1477 1477 1478 1478 1478 1478 1478 1477 1477 1476 1476 1475 1475 1474 1473 1472 1472 1471 1470 1469 1468 1467 1466 1466 1465
1477 1476 1475 1474 1473 1472 1471 1471 1470 1470 1469 1468 1468 1468 1468 1468 1468 1468 1469 1469 1469 1470 1470 1471 1471 1471 1470 1470 1470 1470 1470 1470 1471 1472 1473 1474 1474 1475 1475 1475 1475 1475 1475 1475 1476 1476 1476 1477 1476 1476 1476 1475 1475 1474 1473 1473 1472 1471 1471 1470 1469 1468 1467 1466 1466 1465 1464 1463 1463
1474 1472 1471 1471 1471 1470 1469 1469 1468 1468 1467 1467 1466 1466 1466 1466 1466 1467 1467 1468 1469 1470 1470 1470 1470 1469 1469 1469 1469 1469 1470 1470 1471 1472 1472 1472 1472 1472 1473 1473 1473 1473 1474 1474 1475 1475 1475 1475 1475 1474 1473 1473 1472 1471 1471 1470 1470 1469 1468 1467 1466 1466 1465 1464 1463 1462 1462 1461 1461
1470 1469 1468 1468 1468 1467 1467 1466 1466 1466 1465 1465 1465 1465 1465 1465 1465 1466 1467 1468 1468 1468 1468 1468 1468 1468 1468 1468 1469 1469 1469 1470 1470 1470 1470 1470 1470 1471 1471 1471 1472 1472 1473 1473 1473 1473 1473 1473 1472 1472 1471 1471 1470 1469 1468 1468 1467 1466 1465 1465 1464 1463 1462 1462 1461 1460 1460 1459 1458
1467 1466 1466 1465 1465 1465 1465 1464 1464 1464 1463 1463 1463 1464 1464 1464 1465 1465 1466 1466 1466 1466 1466 1466 1467 1467 1467 1467 1467 1468 1468 1468 1468 1468 1468 1468 1468 1469 1469 1470 1471 1471 1472 1472 1472 1472 1471 1471 1470 1469 1469 1468 1467 1466 1466 1466 1465 1464 1463 1462 1461 1461 1460 1459 1459 1458 1458 1457 1456
1465 1464 1463 1462 1462 1462 1462 1462 1462 1462 1461 1462 1463 1463 1463 1463 1463 1463 1463 1464 1464 1464 1465 1465 1465 1465 1466 1466 1466 1466 1466 1466 1466 1466 1466 1467 1467 1468 1468 1469 1470 1470 1470 1470 1470 1470 1469 1469 1468 1467 1466 1466 1465 1464 1464 1463 1462 1461 1461 1460 1459 1458 1458 1457 1457 1456 1456 1455 1454
1463 1462 1461 1461 1461 1461 1461 1461 1461 1461 1461 1461 1462 1462 1462 1462 1462 1461 1462 1462 1462 1463 1463 1463 1464 1464 1465 1465 1465 1465 1465 1465 1465 1465 1465 1466 1466 1466 1467 1468 1468 1468 1468 1468 1468 1467 1467 1466 1466 1465 1464 1464 1463 1462 1461 1461 1460 1459 1458 1457 1456 1456 1456 1455 1455 1454 1453 1453 1452
1461 1460 1460 1460 1460 1460 1460 1460 1460 1460 1461 1461 1461 1460 1460 1460 1460 1460 1461 1461 1461 1461 1462 1462 1463 1463 1464 1464 1464 1463 1463 1463 1463 1464 1464 1465 1465 1466 1466 1466 1466 1466 1466 1466 1466 1466 1465 1465 1464 1463 1462 1462 1461 1460 1459 1459 1458 1457 1456 1455 1454 1454 1453 1452 1452 1451 1451 1450 1450
1460 1460 1460 1459 1459 1459 1460 1460 1460 1460 1459 1459 1459 1459 1459 1459 1459 1459 1459 1460 1460 1460 1461 1461 1462 1462 1462 1462 1462 1462 1462 1462 1463 1464 1464 1464 1465 1465 1465 1465 1465 1465 1465 1464 1464 1464 1463 1462 1462 1461 1460 1460 1459 1458 1457 1456 1456 1454 1453 1452 1452 1451 1450 1450 1449 1449 1448 1448 1447
1460 1459 1459 1459 1459 1459 1459 1459 1459 1459 1458 1458 1458 1458 1458 1458 1459 1459 1459 1459 1460 1460 1461 1461 1461 1461 1461 1461 1461 1461 1462 1462 1463 1463 1464 1464 1464 1464 1464 1464 1464 1463 1463 1463 1462 1462 1461 1460 1460 1459 1458 1457 1456 1455 1454 1454 1453 1452 1451 1450 1449 1448 1448 1447 1446 1446 1446 1445 1444
1459 1459 1459 1459 1459 1459 1459 1458 1458 1458 1457 1457 1457 1457 1458 1458 1458 1458 1458 1459 1459 1459 1459 1459 1459 1459 1459 1460 1460 1461 1462 1462 1462 1463 1463 1463 1463 1463 1462 1462 1462 1461 1461 1461 1460 1460 1459 1458 1457 1456 1455 1454 1453 1452 1452 1451 1450 1449 1448 1447 1446 1446 1445 1444 1444 1443 1443 1442 1442
1459 1459 1458 1458 1458 1458 1457 1457 1457 1457 1457 1457 1457 1457 1457 1457 1458 1458 1458 1458 1458 1458 1458 1458 1458 1459 1459 1460 1461 1461 1461 1461 1461 1461 1461 1461 1461 1461 1461 1460 1460 1459 1459 1458 1458 1457 1456 1455 1454 1453 1452 1451 1451 1450 1449 1448 1447 1446 1446 1445 1444 1443 1442 1442 1441 1441 1440 1440 1439
1458 1458 1457 1457 1457 1457 1457 1456 1456 1457 1457 1457 1457 1457 1457 1456 1456 1457 1457 1457 1457 1457 1458 1458 1458 1459 1459 1460 1460 1460 1461 1461 1460 1460 1460 1460 1459 1459 1458 1458 1457 1457 1456 1456 1455 1454 1454 1453 1452 1451 1450 1449 1448 1447 1446 1446 1445 1444 1443 1442 1441 1441 1440 1439 1439 1438 1438 1437 1436
1457 1457 1457 1456 1456 1456 1456 1456 1456 1456 1457 1457 1456 1456 1456 1456 1456 1456 1456 1456 1457 1457 1457 1457 1458 1458 1459 1459 1459 1459 1459 1459 1459 1458 1458 1457 1457 1456 1456 1456 1455 1455 1454 1453 1452 1452 1451 1451 1450 1449 1448 1446 1446 1445 1444 1443 1442 1441 1441 1440 1439 1438 1437 1436 1436 1436 1435 1434 1434
1456 1456 1456 1456 1456 1456 1456 1456 1456 1456 1456 1456 1456 1456 1455 1455 1455 1455 1456 1456 1456 1456 1456 1457 1457 1458 1458 1458 1458 1458 1458 1457 1457 1457 1456 1456 1455 1454 1454 1453 1453 1452 1452 1451 1450 1449 1449 1448 1447 1446 1445 1444 1443 1442 1441 1440 1439 1439 1438 1437 1436 1436 1435 1434 1433 1433 1432 1432 1431
1456 1456 1456 1456 1456 1456 1456 1456 1456 1456 1456 1456 1456 1455 1455 1455 1455 1455 1455 1455 1456 1456 1456 1456 1457 1457 1457 1457 1457 1457 1456 1456 1455 1455 1454 1454 1453 1452 1452 1451 1451 1450 1450 1449 1448 1447 1446 1445 1444 1443 1442 1441 1441 1440 1439 1438 1437 1436 1435 1434 1433 1433 1432 1431 1431 1430 1430 1429 1428
1456 1456 1456 1456 1456 1456 1456 1456 1456 1456 1456 1455 1455 1455 1455 1454 1454 1455 1455 1455 1455 1456 1456 1456 1456 1456 1456 1456 1456 1455 1455 1454 1454 1453 1452 1452 1451 1451 1450 1449 1449 1448 1447 1447 1446 1445 1444 1443 1442 1441 1440 1439 1438 1437 1436 1435 1434 1433 1432 1431 1431 1430 1429 1429 1428 1428 1427 1426 1426
1457 1456 1456 1456 1456 1456 1456 1456 1456 1455 1455 1455 1455 1454 1454 1454 1454 1454 1454 1455 1455 1455 1455 1455 1455 1455 1455 1454 1454 1453 1453 1452 1452 1451 1450 1450 1449 1449 1448 1447 1447 1446 1445 1444 1443 1442 1441 1440 1439 1438 1437 1436 1435 1434 1433 1432 1431 1431 1430 1429 1428 1427 1426 1426 1426 1425 1424 1424 1423
1457 1456 1456 1456 1456 1456 1456 1455 1455 1455 1454 1454 1454 1454 1454 1454 1453 1453 1454 1454 1454 1454 1454 1454 1454 1453 1453 1453 1452 1451 1451 1451 1450 1449 1449 1448 1447 1447 1446 1446 1445 1444 1443 1442 1441 1440 1439 1438 1436 1436 1435 1434 1432 1431 1431 1430 1429 1428 1427 1426 1425 1425 1424 1423 1423 1422 1421 1421 1421
1457 1456 1456 1456 1456 1456 1455 1455 1454 1454 1454 1454 1454 1453 1453 1453 1453 1453 1453 1453 1453 1453 1453 1452 1452 1452 1451 1451 1451 1450 1449 1449 1448 1448 1447 1446 1446 1445 1444 1443 1442 1441 1440 1439 1438 1437 1436 1435 1434 1433 1432 1431 1430 1429 1428 1427 1426 1425 1424 1423 1422 1422 1421 1421 1420 1419 1419 1418 1418
1456 1456 1456 1456 1455 1454 1454 1454 1454 1454 1453 1453 1453 1452 1452 1452 1452 1452 1452 1452 1451 1451 1451 1451 1451 1451 1450 1450 1449 1448 1448 1447 1446 1446 1445 1444 1444 1443 1442 1441 1440 1439 1438 1437 1436 1435 1434 1433 1431 1431 1430 1429 1427 1426 1425 1424 1423 1422 1421 1421 1420 1419 1418 1417 1417 1416 1416 1415 1415
1456 1456 1455 1454 1453 1453 1453 1453 1453 1453 1452 1452 1451 1451 1451 1451 1451 1451 1451 1451 1450 1450 1450 1450 1450 1449 1449 1448 1447 1447 1446 1445 1444 1444 1443 1442 1441 1441 1440 1439 1438 1436 1436 1434 1433 1433 1431 1431 1429 1428 1427 1426 1425 1424 1423 1422 1421 1420 1419 1418 1417 1416 1415 1414 1414 1413 1413 1412 1411
1455 1454 1453 1452 1452 1452 1452 1452 1452 1452 1451 1451 1451 1451 1451 1451 1450 1450 1450 1449 1449 1449 1449 1448 1448 1447 1447 1446 1446 1445 1444 1443 1442 1441 1441 1440 1439 1438 1437 1436 1435 1434 1433 1432 1431 1431 1430 1429 1427 1426 1425 1424 1423 1421 1420 1419 1418 1417 1416 1415 1414 1413 1412 1411 1411 1410 1409 1409 1408
1453 1452 1452 1451 1452 1452 1452 1451 1451 1451 1450 1450 1450 1450 1450 1449 1449 1449 1448 1448 1448 1448 1447 1447 1446 1446 1445 1444 1444 1443 1442 1441 1441 1440 1439 1437 1436 1436 1435 1434 1433 1432 1431 1430 1429 1428 1427 1426 1426 1424 1423 1422 1420 1419 1418 1416 1416 1415 1413 1412 1411 1410 1409 1408 1407 1406 1406 1406 1405
1451 1451 1451 1451 1451 1451 1451 1450 1450 1449 1449 1449 1449 1449 1448 1448 1448 1447 1447 1447 1447 1446 1446 1446 1445 1444 1443 1442 1442 1441 1440 1439 1439 1438 1437 1436 1434 1433 1432 1431 1431 1430 1429 1428 1427 1426 1425 1424 1423 1422 1421 1420 1418 1416 1415 1414 1412 1411 1410 1409 1408 1407 1406 1405 1404 1403 1402 1402 1401
1451 1451 1451 1451 1451 1450 1450 1449 1449 1448 1448 1448 1448 1447 1447 1447 1447 1446 1446 1446 1446 1445 1444 1444 1443 1442 1441 1441 1440 1439 1438 1437 1436 1436 1435 1433 1432 1431 1430 1429 1428 1427 1426 1426 1425 1424 1422 1421 1421 1419 1418 1417 1416 1414 1412 1411 1410 1408 1407 1406 1405 1404 1403 1402 1401 1400 1399 1398 1398
1451 1451 1451 1450 1449 1449 1448 1448 1447 1447 1447 1447 1447 1446 1446 1446 1446 1445 1445 1445 1444 1444 1443 1442 1441 1441 1440 1439 1438 1437 1436 1436 1434 1433 1432 1431 1430 1429 1428 1427 1426 1425 1424 1423 1422 1421 1420 1419 1418 1416 1415 1414 1413 1411 1410 1408 1407 1406 1404 1403 1402 1401 1400 1399 1398 1397 1396 1395 1394
1451 1450 1449 1448 1448 1447 1447 1447 1447 1446 1446 1446 1446 1446 1445 1445 1445 1444 1444 1443 1443 1442 1441 1441 1440 1439 1438 1437 1436 1435 1434 1433 1432 1431 1430 1429 1427 1426 1425 1424 1423 1422 1421 1421 1419 1418 1417 1416 1415 1413 1412 1411 1410 1408 1407 1406 1404 1403 1401 1400 1399 1398 1397 1396 1395 1393 1392 1391 1390
1449 1449 1448 1447 1447 1446 1446 1446 1446 1446 1446 1445 1445 1444 1444 1444 1443 1443 1442 1442 1441 1440 1440 1439 1438 1437 1436 1435 1434 1433 1432 1431 1430 1429 1428 1426 1425 1424 1423 1422 1421 1420 1419 1418 1416 1415 1414 1413 1412 1411 1409 1408 1407 1405 1404 1402 1401 1400 1398 1397 1396 1395 1394 1392 1391 1390 1389 1388 1387
1448 1447 1447 1446 1446 1446 1446 1446 1445 1445 1445 1444 1444 1443 1443 1443 1442 1441 1441 1440 1440 1439 1438 1437 1436 1435 1434 1433 1432 1431 1430 1429 1428 1426 1426 1424 1423 1421 1420 1419 1418 1417 1416 1415 1414 1412 1411 1410 1409 1408 1406 1405 1404 1402 1401 1400 1398 1397 1395 1394 1393 1392 1391 1390 1388 1387 1387 1386 1385
1447 1446 1446 1446 1445 1445 1445 1445 1444 1444 1444 1443 1443 1442 1442 1441 1441 1440 1440 1439 1438 1437 1436 1436 1434 1433 1432 1431 1430 1429 1428 1427 1426 1424 1423 1422 1421 1419 1418 1416 1416 1415 1413 1412 1411 1410 1409 1407 1406 1405 1404 1402 1401 1399 1398 1396 1395 1393 1392 1391 1390 1389 1388 1387 1386 1386 1385 1384 1383
1446 1446 1445 1445 1445 1444 1444 1444 1443 1443 1443 1442 1442 1441 1441 1440 1440 1439 1438 1438 1437 1436 1435 1434 1433 1432 1431 1430 1428 1427 1426 1424 1423 1422 1421 1420 1418 1417 1416 1414 1413 1412 1411 1410 1408 1407 1406 1405 1403 1402 1401 1399 1397 1396 1394 1393 1391 1390 1389 1388 1388 1387 1386 1385 1384 1383 1382 1381 1381
1446 1445 1445 1444 1444 1444 1443 1443 1443 1442 1442 1441 1441 1440 1440 1439 1439 1438 1437 1436 1435 1434 1433 1432 1431 1430 1429 1427 1426 1425 1423 1422 1421 1420 1418 1417 1416 1415 1413 1412 1411 1410 1408 1407 1406 1405 1403 1402 1401 1399 1397 1396 1394 1392 1391 1390 1389 1388 1387 1386 1385 1385 1384 1383 1382 1381 1380 1379 1378
1445 1445 1444 1444 1443 1443 1443 1442 1442 1442 1441 1441 1440 1439 1438 1438 1437 1436 1435 1434 1433 1432 1431 1430 1429 1427 1426 1425 1423 1422 1421 1420 1419 1417 1416 1415 1414 1412 1411 1409 1408 1407 1406 1405 1403 1402 1401 1399 1398 1396 1394 1393 1391 1390 1389 1388 1387 1386 1385 1384 1383 1382 1381 1380 1379 1378 1377 1376 1375
1444 1444 1443 1443 1443 1443 1442 1442 1441 1441 1440 1439 1438 1438 1437 1436 1435 1434 1433 1432 1431 1430 1429 1428 1426 1425 1424 1422 1421 1420 1419 1418 1416 1415 1414 1413 1411 1410 1408 1407 1406 1404 1403 1402 1401 1400 1398 1396 1395 1393 1391 1390 1389 1388 1387 1386 1385 1384 1383 1382 1381 1380 1379 1378 1376 1375 1374 1373 1373
1443 1443 1443 1443 1443 1442 1442 1441 1440 1439 1439 1438 1437 1436 1436 1435 1434 1433 1432 1431 1430 1428 1426 1425 1424 1423 1421 1421 1419 1418 1417 1416 1415 1413 1412 1411 1409 1408 1406 1404 1403 1402 1401 1400 1398 1397 1395 1394 1392 1391 1389 1388 1387 1386 1385 1384 1383 1382 1381 1380 1378 1377 1376 1375 1374 1373 1371 1371 1370
1443 1443 1443 1442 1442 1441 1441 1440 1439 1438 1437 1436 1436 1435 1434 1433 1432 1431 1430 1429 1427 1426 1425 1423 1422 1421 1420 1418 1417 1416 1414 1413 1412 1411 1410 1408 1407 1406 1404 1402 1401 1399 1398 1397 1396 1394 1393 1391 1390 1388 1387 1386 1386 1385 1383 1382 1381 1380 1379 1378 1376 1375 1374 1373 1372 1371 1369 1368 1368
1442 1442 1442 1441 1441 1440 1439 1438 1438 1437 1436 1435 1434 1433 1432 1431 1430 1429 1428 1426 1425 1424 1423 1421 1420 1419 1417 1416 1415 1414 1412 1411 1410 1409 1408 1406 1405 1403 1402 1400 1398 1397 1396 1395 1393 1392 1390 1389 1387 1386 1386 1385 1384 1383 1382 1381 1379 1378 1377 1376 1375 1374 1372 1371 1370 1369 1368 1367 1366
1442 1441 1441 1441 1440 1439 1438 1437 1436 1435 1434 1433 1433 1431 1431 1430 1428 1427 1426 1424 1423 1422 1421 1419 1418 1417 1416 1414 1413 1411 1410 1409 1408 1407 1406 1404 1403 1401 1400 1398 1396 1395 1393 1392 1391 1389 1388 1386 1386 1385 1384 1383 1382 1381 1380 1379 1378 1376 1375 1374 1373 1372 1371 1369 1368 1367 1366 1365 1364